User: anonymous   Login
Location: Kott?ru
(16.6209°N, 80.6208°E)
Time: 04:03:25
(UTC+00:00)
Language:

STRAND 1 - Orbit

View from above orbital plane
View from above orbital plane
View from above satellite
View from above satellite

Ground track
Ground track

The orbit data is extracted from the following two-line orbital elements,

1 39090U 13009E   23158.52426889  .00000326  00000-0  12796-3 0  9996
2 39090  98.3888 352.1511 0007790 297.4101  62.6292 14.35597648538333
Epoch (UTC): 07 June 2023 12:34:56
Eccentricity: 0.0007790
inclination: 98.3888°
perigee height: 767 km
apogee height: 778 km
right ascension of ascending node: 352.1511°
argument of perigee: 297.4101°
revolutions per day: 14.35597648
mean anomaly at epoch: 62.6292°
orbit number at epoch: 53833

The dashed part of the orbit path shows where the satellite is in the earth's shadow,  

DLR